User: anonymous   Login
Location: Fort Wayne
(41.1310°N, 85.1290°W)
Time: 04:24:06
(UTC-05:00)
Language:

OAO 2 Rocket - Orbit

View from above orbital plane
View from above orbital plane
View from above satellite
View from above satellite

Ground track
Ground track

The orbit data is extracted from the following two-line orbital elements,

1 03598U 68110B   14330.15973903  .00000482  00000-0  11572-3 0  7709
2 03598 034.9925 210.1834 0050647 213.5657 295.3244 14.53809692430440
Epoch (UTC): 26 November 2014 03:50:01
Eccentricity: 0.0050647
inclination: 34.9925°
perigee height: 677 km
apogee height: 749 km
right ascension of ascending node: 210.1834°
argument of perigee: 213.5657°
revolutions per day: 14.53809692
mean anomaly at epoch: 295.3244°
orbit number at epoch: 43044

The dashed part of the orbit path shows where the satellite is in the earth's shadow,  

DLR